Regional Weather Roundup
Issued by NWS

Home | Current Version | Previous Version | Graphics & Text | Print | Product List | Glossary On
Versions: 1 2 3 4 5 6 7 8 9 10 11 12 13 14 15 16 17 18 19 20 21 22 23 24 25 26 27 28 29 30 31 32 33 34 35 36 37 38 39 40 41 42 43 44 45 46 47 48 49 50
999
ASUS44 KLIX 181405
RWRLA
LOUISIANA WEATHER ROUNDUP
NATIONAL WEATHER SERVICE NEW ORLEANS LA
900 AM CDT FRI APR 18 2014

NOTE: "FAIR" INDICATES FEW OR NO CLOUDS BELOW 12,000 FEET WITH NO
      SIGNIFICANT WEATHER AND/OR OBSTRUCTIONS TO VISIBILITY.
      SKY/WX - SKY CONDITION AND SIGNIFICANT WEATHER.
      TMP - AIR TEMPERATURE.    DP   - DEWPOINT TEMPERATURE.
      RH  - RELATIVE HUMIDITY.  PRES - PRESSURE.
      HX  - HEAT INDEX.         WCI  - WIND CHILL INDEX.

*  THESE STATIONS ARE NOT NWS OR FAA STATIONS AND ARE NOT UNDER
   NWS QUALITY CONTROL.

LAZ040-048-061>063-065-066-069-181500-
SOUTHEAST LOUISIANA

CITY           SKY/WX    TMP DP  RH WIND       PRES   REMARKS
N.O. AUDUBON     N/A     64 N/A N/A MISG        N/A
N.O. INTL ARPT PTSUNNY   64  61  90 N13       30.10S
N.O. LAKEFRONT CLOUDY    63  60  90 NE17      30.10F
N.O. DOWNTOWN* CLOUDY    63  57  82 N7        30.10F
SLIDELL        LGT RAIN  63  60  90 NE6       30.09F
BATON ROUGE    PTSUNNY   66  57  72 NE5       30.13F
BOOTHVILLE     LGT RAIN  61  60  97 N12G20    30.07R FOG
BELLE CHASSE   LGT RAIN  63  59  87 NE8       30.08F
BOGALUSA*        N/A     64  58  83 NE6       30.13S
GALLIANO*      CLOUDY    63  61  93 N13       30.09S
NEW ROADS*     FAIR      63  57  81 N7        30.15S
GONZALES*      FAIR      64  59  83 N6        30.12S
HAMMOND*       SUNNY     68  59  73 N7        30.12F
HOUMA*         MOSUNNY   64  59  82 N12       30.09F
PORT FOURCHON* CLOUDY    63  61  94 N17G23    30.10R FOG

$$

LAZ041-044-053-054-181500-
SOUTHWEST LOUISIANA

CITY           SKY/WX    TMP DP  RH WIND       PRES   REMARKS
LAKE CHARLES   CLOUDY    60  56  86 N7        30.16R
LAFAYETTE      MOSUNNY   65  58  78 E5        30.13F
PATTERSON      CLOUDY    63  57  82 N8          N/A
SALT POINT       N/A     66  60  81 VRB5      30.11S
NEW IBERIA     SUNNY     66  58  75 NE10      30.13F
CHENAULT AIRPK NOT AVBL

$$

LAZ027-028-181500-
CENTRAL LOUISIANA

CITY           SKY/WX    TMP DP  RH WIND       PRES   REMARKS
FORT POLK      CLOUDY    58  55  90 N5        30.17S
ALEXANDRIA INT CLOUDY    59  55  87 N6        30.17S
ALEXANDRIA     CLOUDY    60  54  80 VRB6      30.18F

$$

LAZ001-002-181500-
NORTHWEST LOUISIANA

CITY           SKY/WX    TMP DP  RH WIND       PRES   REMARKS
SHREVEPORT     MOSUNNY   59  53  80 N7        30.22R
BARKSDALE AFB  MOSUNNY   58  53  82 NE6       30.22R
DTN SHREVEPORT MOSUNNY   58  51  78 N7        30.23R

$$

LAZ014-016-181500-
NORTHEAST LOUISIANA

CITY           SKY/WX    TMP DP  RH WIND       PRES   REMARKS
MONROE         LGT RAIN  59  54  83 N10       30.19F
TALLULAH       CLOUDY    62  55  77 N8        30.21R

$$




USA.gov is the U.S. government's official web portal to all federal, state and local government web resources and services.